Time,TemperatureF,DewpointF,PressureIn,WindDirection,WindDirectionDegrees,WindSpeedMPH,WindSpeedGustMPH,Humidity,HourlyPrecipIn,Conditions,Clouds,dailyrainin,SoftwareType,DateUTC
2014-08-21 00:01:00,82.0,74.1,30.17,NE,45,0.0,0.0,77,0.00,RA,,0.00,WeatherDisplay:10.37,2014-08-21 04:01:00,
2014-08-21 00:06:00,82.2,74.3,30.17,NE,45,0.0,0.0,77,0.00,RA,,0.00,WeatherDisplay:10.37,2014-08-21 04:06:00,
2014-08-21 00:11:00,82.1,74.6,30.17,NE,45,0.0,0.0,78,0.00,CLR,,0.00,WeatherDisplay:10.37,2014-08-21 04:11:00,
2014-08-21 00:16:00,81.9,74.4,30.17,NE,45,0.0,0.0,78,0.00,CLR,,0.00,WeatherDisplay:10.37,2014-08-21 04:16:00,
2014-08-21 00:21:00,81.8,74.3,30.17,NE,45,0.0,0.0,78,0.00,CLR,,0.00,WeatherDisplay:10.37,2014-08-21 04:21:00,
2014-08-21 00:26:00,81.8,74.6,30.17,NE,45,0.0,0.0,79,0.00,CLR,,0.00,WeatherDisplay:10.37,2014-08-21 04:26:00,
2014-08-21 00:31:00,81.9,74.7,30.17,NE,45,0.0,0.0,79,0.00,CLR,,0.00,WeatherDisplay:10.37,2014-08-21 04:31:00,
2014-08-21 00:36:00,82.1,74.9,30.17,North,360,0.0,0.0,79,0.00,CLR,,0.00,WeatherDisplay:10.37,2014-08-21 04:36:00,
2014-08-21 00:41:00,82.1,74.9,30.17,North,360,0.0,0.0,79,0.00,CLR,,0.00,WeatherDisplay:10.37,2014-08-21 04:41:00,
2014-08-21 00:46:00,82.1,74.9,30.17,North,360,0.0,0.0,79,0.00,CLR,,0.00,WeatherDisplay:10.37,2014-08-21 04:46:00,
2014-08-21 00:51:00,82.1,74.9,30.17,North,360,0.0,0.0,79,0.00,CLR,,0.00,WeatherDisplay:10.37,2014-08-21 04:51:00,
2014-08-21 00:56:00,82.2,75.0,30.17,NNW,337,1.0,0.0,79,0.00,CLR,,0.00,WeatherDisplay:10.37,2014-08-21 04:56:00,
2014-08-21 01:01:00,82.2,75.0,30.17,NNW,337,2.3,2.3,79,0.00,CLR,,0.00,WeatherDisplay:10.37,2014-08-21 05:01:00,
2014-08-21 01:06:00,82.1,74.9,30.17,NNW,337,2.3,2.3,79,0.00,CLR,,0.00,WeatherDisplay:10.37,2014-08-21 05:06:00,
2014-08-21 01:11:00,81.9,75.1,30.17,NNW,337,2.3,2.3,80,0.00,CLR,,0.00,WeatherDisplay:10.37,2014-08-21 05:11:00,
2014-08-21 01:16:00,81.9,75.5,30.17,NW,315,2.3,2.3,81,0.00,CLR,,0.00,WeatherDisplay:10.37,2014-08-21 05:16:00,
2014-08-21 01:21:00,81.7,75.3,30.16,NW,315,2.3,2.3,81,0.00,CLR,,0.00,WeatherDisplay:10.37,2014-08-21 05:21:00,
2014-08-21 01:26:00,81.6,75.2,30.16,NW,315,2.3,2.3,81,0.00,CLR,,0.00,WeatherDisplay:10.37,2014-08-21 05:26:00,
2014-08-21 01:31:00,81.5,75.5,30.16,NW,315,2.3,2.3,82,0.00,CLR,,0.00,WeatherDisplay:10.37,2014-08-21 05:31:00,
2014-08-21 01:36:00,81.4,75.4,30.16,NNW,337,2.3,2.3,82,0.00,CLR,,0.00,WeatherDisplay:10.37,2014-08-21 05:36:00,
2014-08-21 01:41:00,81.4,75.4,30.16,NNW,337,2.3,2.3,82,0.00,CLR,,0.00,WeatherDisplay:10.37,2014-08-21 05:41:00,
2014-08-21 01:46:00,81.4,75.4,30.15,North,360,0.0,0.0,82,0.00,CLR,,0.00,WeatherDisplay:10.37,2014-08-21 05:46:00,
2014-08-21 01:51:00,81.2,75.2,30.15,North,360,0.0,0.0,82,0.00,CLR,,0.00,WeatherDisplay:10.37,2014-08-21 05:51:00,
2014-08-21 01:56:00,81.2,75.2,30.15,NNW,337,2.3,2.3,82,0.00,CLR,,0.00,WeatherDisplay:10.37,2014-08-21 05:56:00,
2014-08-21 02:01:00,81.2,75.2,30.15,NNW,337,0.0,0.0,82,0.00,CLR,,0.00,WeatherDisplay:10.37,2014-08-21 06:01:00,
2014-08-21 02:06:00,81.1,75.1,30.15,NNW,337,0.0,0.0,82,0.00,CLR,,0.00,WeatherDisplay:10.37,2014-08-21 06:06:00,
2014-08-21 02:11:00,81.1,75.1,30.15,North,360,2.3,2.3,82,0.00,CLR,,0.00,WeatherDisplay:10.37,2014-08-21 06:11:00,
2014-08-21 02:16:00,81.1,74.7,30.15,North,360,0.0,0.0,81,0.00,CLR,,0.00,WeatherDisplay:10.37,2014-08-21 06:16:00,
2014-08-21 02:21:00,81.1,74.7,30.15,North,360,0.0,0.0,81,0.00,CLR,,0.00,WeatherDisplay:10.37,2014-08-21 06:21:00,
2014-08-21 02:26:00,81.1,74.7,30.15,North,360,0.0,0.0,81,0.00,CLR,,0.00,WeatherDisplay:10.37,2014-08-21 06:26:00,
2014-08-21 02:31:00,80.9,74.9,30.15,NNW,337,0.0,0.0,82,0.00,CLR,,0.00,WeatherDisplay:10.37,2014-08-21 06:31:00,
2014-08-21 02:36:00,80.8,74.8,30.15,North,360,2.0,2.0,82,0.00,CLR,,0.00,WeatherDisplay:10.37,2014-08-21 06:36:00,
2014-08-21 02:41:00,80.7,75.1,30.15,North,360,0.0,0.0,83,0.00,CLR,,0.00,WeatherDisplay:10.37,2014-08-21 06:41:00,
2014-08-21 02:46:00,80.6,75.0,30.15,NNW,337,2.3,2.3,83,0.00,CLR,,0.00,WeatherDisplay:10.37,2014-08-21 06:46:00,
2014-08-21 02:51:00,80.5,74.9,30.15,NNW,337,2.3,2.3,83,0.00,CLR,,0.00,WeatherDisplay:10.37,2014-08-21 06:51:00,
2014-08-21 02:56:00,80.2,74.6,30.15,North,360,0.0,0.0,83,0.00,CLR,,0.00,WeatherDisplay:10.37,2014-08-21 06:56:00,
2014-08-21 03:01:00,80.2,74.6,30.15,North,360,0.0,0.0,83,0.00,CLR,,0.00,WeatherDisplay:10.37,2014-08-21 07:01:00,
2014-08-21 03:06:00,80.3,75.0,30.15,North,360,0.0,0.0,84,0.00,CLR,,0.00,WeatherDisplay:10.37,2014-08-21 07:06:00,
2014-08-21 03:11:00,79.9,74.6,30.15,North,360,0.0,0.0,84,0.00,CLR,,0.00,WeatherDisplay:10.37,2014-08-21 07:11:00,
2014-08-21 03:16:00,79.9,74.6,30.15,North,360,0.0,0.0,84,0.00,CLR,,0.00,WeatherDisplay:10.37,2014-08-21 07:16:00,
2014-08-21 03:21:00,79.9,74.6,30.15,North,360,0.0,0.0,84,0.00,CLR,,0.00,WeatherDisplay:10.37,2014-08-21 07:21:00,
2014-08-21 03:26:00,79.9,74.6,30.15,North,360,0.0,0.0,84,0.00,CLR,,0.00,WeatherDisplay:10.37,2014-08-21 07:26:00,
2014-08-21 03:31:00,79.9,74.6,30.15,North,360,0.0,0.0,84,0.00,CLR,,0.00,WeatherDisplay:10.37,2014-08-21 07:31:00,
2014-08-21 03:36:00,79.8,74.5,30.14,NE,45,2.3,2.3,84,0.00,CLR,,0.00,WeatherDisplay:10.37,2014-08-21 07:36:00,
2014-08-21 03:41:00,79.8,74.5,30.14,NE,45,2.3,2.3,84,0.00,CLR,,0.00,WeatherDisplay:10.37,2014-08-21 07:41:00,
2014-08-21 03:46:00,79.8,74.5,30.14,NE,45,2.3,2.3,84,0.00,CLR,,0.00,WeatherDisplay:10.37,2014-08-21 07:46:00,
2014-08-21 03:51:00,79.7,74.8,30.13,North,360,0.0,0.0,85,0.00,CLR,,0.00,WeatherDisplay:10.37,2014-08-21 07:51:00,
2014-08-21 03:56:00,79.7,74.8,30.13,North,360,0.0,0.0,85,0.00,CLR,,0.00,WeatherDisplay:10.37,2014-08-21 07:56:00,
2014-08-21 04:01:00,79.4,74.5,30.13,North,360,0.0,0.0,85,0.00,CLR,,0.00,WeatherDisplay:10.37,2014-08-21 08:01:00,
2014-08-21 04:06:00,79.4,74.5,30.13,North,360,0.0,0.0,85,0.00,CLR,,0.00,WeatherDisplay:10.37,2014-08-21 08:06:00,
2014-08-21 04:11:00,79.4,74.5,30.13,North,360,0.0,0.0,85,0.00,CLR,,0.00,WeatherDisplay:10.37,2014-08-21 08:11:00,
2014-08-21 04:16:00,79.4,74.5,30.13,North,360,0.0,0.0,85,0.00,CLR,,0.00,WeatherDisplay:10.37,2014-08-21 08:16:00,
2014-08-21 04:21:00,79.4,74.5,30.13,North,360,0.0,0.0,85,0.00,CLR,,0.00,WeatherDisplay:10.37,2014-08-21 08:21:00,
2014-08-21 04:26:00,79.4,74.5,30.13,North,360,0.0,0.0,85,0.00,CLR,,0.00,WeatherDisplay:10.37,2014-08-21 08:26:00,
2014-08-21 04:31:00,79.4,74.5,30.13,North,360,0.0,0.0,85,0.00,CLR,,0.00,WeatherDisplay:10.37,2014-08-21 08:31:00,
2014-08-21 04:36:00,79.4,74.5,30.13,North,360,0.0,0.0,85,0.00,CLR,,0.00,WeatherDisplay:10.37,2014-08-21 08:36:00,
2014-08-21 04:41:00,78.9,74.7,30.12,North,360,1.2,0.0,87,0.00,CLR,,0.00,WeatherDisplay:10.37,2014-08-21 08:41:00,
2014-08-21 04:46:00,78.9,74.7,30.12,North,360,2.3,2.3,87,0.00,CLR,,0.00,WeatherDisplay:10.37,2014-08-21 08:46:00,
2014-08-21 04:51:00,78.9,74.7,30.12,NNE,22,2.3,2.3,87,0.00,CLR,,0.00,WeatherDisplay:10.37,2014-08-21 08:51:00,
2014-08-21 04:56:00,78.9,74.7,30.12,NNE,22,2.3,2.3,87,0.00,CLR,,0.00,WeatherDisplay:10.37,2014-08-21 08:56:00,
2014-08-21 05:01:00,78.9,74.7,30.12,NNE,22,2.3,2.3,87,0.00,CLR,,0.00,WeatherDisplay:10.37,2014-08-21 09:01:00,
2014-08-21 05:06:00,78.9,74.7,30.12,NNE,22,2.3,2.3,87,0.00,CLR,,0.00,WeatherDisplay:10.37,2014-08-21 09:06:00,
2014-08-21 05:11:00,78.7,74.8,30.12,NNE,22,0.0,0.0,88,0.00,CLR,,0.00,WeatherDisplay:10.37,2014-08-21 09:11:00,
2014-08-21 05:16:00,78.7,74.8,30.12,NNE,22,0.0,0.0,88,0.00,CLR,,0.00,WeatherDisplay:10.37,2014-08-21 09:16:00,
2014-08-21 05:21:00,78.7,74.8,30.12,NNE,22,0.0,0.0,88,0.00,CLR,,0.00,WeatherDisplay:10.37,2014-08-21 09:21:00,
2014-08-21 05:26:00,78.7,74.8,30.12,NNE,22,0.0,0.0,88,0.00,CLR,,0.00,WeatherDisplay:10.37,2014-08-21 09:26:00,
2014-08-21 05:31:00,78.7,74.8,30.12,NNE,22,0.0,0.0,88,0.00,CLR,,0.00,WeatherDisplay:10.37,2014-08-21 09:31:00,
2014-08-21 05:36:00,78.7,74.8,30.12,NNE,22,0.0,0.0,88,0.00,CLR,,0.00,WeatherDisplay:10.37,2014-08-21 09:36:00,
2014-08-21 05:41:00,78.7,74.8,30.12,NNE,22,0.0,0.0,88,0.00,CLR,,0.00,WeatherDisplay:10.37,2014-08-21 09:41:00,
2014-08-21 05:46:00,77.7,74.9,30.11,NE,45,0.0,0.0,91,0.00,CLR,,0.00,WeatherDisplay:10.37,2014-08-21 09:46:00,
2014-08-21 05:51:00,77.5,74.7,30.11,NNE,22,0.0,0.0,91,0.00,CLR,,0.00,WeatherDisplay:10.37,2014-08-21 09:51:00,
2014-08-21 05:56:00,77.5,74.7,30.12,NNE,22,0.0,0.0,91,0.00,CLR,,0.00,WeatherDisplay:10.37,2014-08-21 09:56:00,
2014-08-21 06:01:00,77.8,75.0,30.12,North,360,1.2,1.2,91,0.00,CLR,,0.00,WeatherDisplay:10.37,2014-08-21 10:01:00,
2014-08-21 06:06:00,77.8,75.0,30.12,North,360,0.0,0.0,91,0.00,CLR,,0.00,WeatherDisplay:10.37,2014-08-21 10:06:00,
2014-08-21 06:11:00,77.9,75.1,30.12,North,360,1.2,0.0,91,0.00,CLR,,0.00,WeatherDisplay:10.37,2014-08-21 10:11:00,
2014-08-21 06:16:00,77.8,75.0,30.12,North,360,0.0,0.0,91,0.00,CLR,,0.00,WeatherDisplay:10.37,2014-08-21 10:16:00,
2014-08-21 06:21:00,77.8,75.0,30.12,North,360,0.0,0.0,91,0.00,CLR,,0.00,WeatherDisplay:10.37,2014-08-21 10:21:00,
2014-08-21 06:26:00,77.8,75.0,30.12,North,360,0.0,0.0,91,0.00,CLR,,0.00,WeatherDisplay:10.37,2014-08-21 10:26:00,
2014-08-21 06:31:00,77.8,75.0,30.12,North,360,0.0,0.0,91,0.00,CLR,,0.00,WeatherDisplay:10.37,2014-08-21 10:31:00,
2014-08-21 06:36:00,77.8,75.0,30.12,North,360,0.0,0.0,91,0.00,CLR,,0.00,WeatherDisplay:10.37,2014-08-21 10:36:00,
2014-08-21 06:41:00,77.7,74.9,30.13,North,360,0.0,0.0,91,0.00,CLR,,0.00,WeatherDisplay:10.37,2014-08-21 10:41:00,
2014-08-21 06:46:00,77.5,75.0,30.13,North,360,2.3,2.3,92,0.00,CLR,,0.00,WeatherDisplay:10.37,2014-08-21 10:46:00,
2014-08-21 06:51:00,77.4,74.6,30.13,North,360,0.0,0.0,91,0.00,CLR,,0.00,WeatherDisplay:10.37,2014-08-21 10:51:00,
2014-08-21 06:56:00,77.3,74.8,30.14,North,360,0.0,0.0,92,0.00,CLR,,0.00,WeatherDisplay:10.37,2014-08-21 10:56:00,
2014-08-21 07:01:00,77.3,74.8,30.14,NE,45,0.0,0.0,92,0.00,CLR,,0.00,WeatherDisplay:10.37,2014-08-21 11:01:00,
2014-08-21 07:06:00,77.5,75.0,30.14,North,360,0.0,0.0,92,0.00,CLR,,0.00,WeatherDisplay:10.37,2014-08-21 11:06:00,
2014-08-21 07:11:00,77.4,74.9,30.14,North,360,1.2,1.2,92,0.00,CLR,,0.00,WeatherDisplay:10.37,2014-08-21 11:11:00,
2014-08-21 07:16:00,77.4,74.9,30.14,North,360,2.3,2.3,92,0.00,CLR,,0.00,WeatherDisplay:10.37,2014-08-21 11:16:00,
2014-08-21 07:21:00,77.5,75.0,30.15,North,360,1.2,1.2,92,0.00,CLR,,0.00,WeatherDisplay:10.37,2014-08-21 11:21:00,
2014-08-21 07:26:00,77.7,75.2,30.15,North,360,0.0,0.0,92,0.00,CLR,,0.00,WeatherDisplay:10.37,2014-08-21 11:26:00,
2014-08-21 07:31:00,77.6,74.8,30.15,North,360,0.0,0.0,91,0.00,CLR,,0.00,WeatherDisplay:10.37,2014-08-21 11:31:00,
2014-08-21 07:36:00,77.8,75.3,30.16,North,360,0.0,0.0,92,0.00,CLR,,0.00,WeatherDisplay:10.37,2014-08-21 11:36:00,
2014-08-21 07:41:00,77.9,75.4,30.16,NNE,22,2.3,2.3,92,0.00,CLR,,0.00,WeatherDisplay:10.37,2014-08-21 11:41:00,
2014-08-21 07:46:00,77.9,75.1,30.16,North,360,1.2,1.2,91,0.00,CLR,,0.00,WeatherDisplay:10.37,2014-08-21 11:46:00,
2014-08-21 07:51:00,78.3,75.5,30.17,North,360,2.0,2.0,91,0.00,CLR,,0.00,WeatherDisplay:10.37,2014-08-21 11:51:00,
2014-08-21 07:56:00,78.3,75.1,30.17,North,360,2.3,2.3,90,0.00,CLR,,0.00,WeatherDisplay:10.37,2014-08-21 11:56:00,
2014-08-21 08:01:00,78.3,75.1,30.17,North,360,2.3,2.3,90,0.00,CLR,,0.00,WeatherDisplay:10.37,2014-08-21 12:01:00,
2014-08-21 08:06:00,78.7,75.5,30.17,NNE,22,2.3,2.3,90,0.00,CLR,,0.00,WeatherDisplay:10.37,2014-08-21 12:06:00,
2014-08-21 08:11:00,79.1,75.9,30.17,NNE,22,0.0,0.0,90,0.00,CLR,,0.00,WeatherDisplay:10.37,2014-08-21 12:11:00,
2014-08-21 08:16:00,79.3,75.8,30.17,NE,45,2.0,2.0,89,0.00,CLR,,0.00,WeatherDisplay:10.37,2014-08-21 12:16:00,
2014-08-21 08:21:00,79.4,75.5,30.17,NE,45,2.3,2.3,88,0.00,CLR,,0.00,WeatherDisplay:10.37,2014-08-21 12:21:00,
2014-08-21 08:26:00,79.9,75.7,30.18,North,360,2.3,2.3,87,0.00,CLR,,0.00,WeatherDisplay:10.37,2014-08-21 12:26:00,
2014-08-21 08:31:00,80.2,76.0,30.18,North,360,2.3,2.3,87,0.00,CLR,,0.00,WeatherDisplay:10.37,2014-08-21 12:31:00,
2014-08-21 08:36:00,80.4,75.8,30.18,NNE,22,2.3,2.3,86,0.00,CLR,,0.00,WeatherDisplay:10.37,2014-08-21 12:36:00,
2014-08-21 08:41:00,81.3,76.4,30.18,NE,45,1.0,1.0,85,0.00,CLR,,0.00,WeatherDisplay:10.37,2014-08-21 12:41:00,
2014-08-21 08:46:00,82.0,76.3,30.18,NE,45,4.0,4.0,83,0.00,CLR,,0.00,WeatherDisplay:10.37,2014-08-21 12:46:00,
2014-08-21 08:51:00,82.7,76.3,30.19,NNE,22,4.0,4.0,81,0.00,CLR,,0.00,WeatherDisplay:10.37,2014-08-21 12:51:00,
2014-08-21 08:56:00,83.4,76.6,30.19,NNE,22,1.2,1.2,80,0.00,CLR,,0.00,WeatherDisplay:10.37,2014-08-21 12:56:00,
2014-08-21 09:01:00,84.2,76.2,30.20,NNE,22,2.3,2.3,77,0.00,CLR,,0.00,WeatherDisplay:10.37,2014-08-21 13:01:00,
2014-08-21 09:06:00,84.5,76.1,30.20,NE,45,2.3,2.3,76,0.00,CLR,,0.00,WeatherDisplay:10.37,2014-08-21 13:06:00,
2014-08-21 09:11:00,84.7,76.3,30.21,NE,45,2.3,2.3,76,0.00,CLR,,0.00,WeatherDisplay:10.37,2014-08-21 13:11:00,
2014-08-21 09:16:00,85.0,76.2,30.21,NNE,22,2.0,2.0,75,0.00,CLR,,0.00,WeatherDisplay:10.37,2014-08-21 13:16:00,
2014-08-21 09:21:00,85.1,75.9,30.21,NNE,22,2.3,2.3,74,0.00,CLR,,0.00,WeatherDisplay:10.37,2014-08-21 13:21:00,
2014-08-21 09:26:00,85.7,76.5,30.21,NNE,22,2.3,2.3,74,0.00,CLR,,0.00,WeatherDisplay:10.37,2014-08-21 13:26:00,
2014-08-21 09:31:00,85.9,76.2,30.21,NNE,22,3.5,3.5,73,0.00,CLR,,0.00,WeatherDisplay:10.37,2014-08-21 13:31:00,
2014-08-21 09:36:00,86.3,76.6,30.21,NNE,22,2.3,2.3,73,0.00,CLR,,0.00,WeatherDisplay:10.37,2014-08-21 13:36:00,
2014-08-21 09:41:00,86.5,76.4,30.21,NNE,22,2.3,2.3,72,0.00,CLR,,0.00,WeatherDisplay:10.37,2014-08-21 13:41:00,
2014-08-21 09:46:00,86.7,76.2,30.22,NE,45,2.3,2.3,71,0.00,CLR,,0.00,WeatherDisplay:10.37,2014-08-21 13:46:00,
2014-08-21 09:51:00,86.7,76.2,30.23,NE,45,2.3,2.3,71,0.00,CLR,,0.00,WeatherDisplay:10.37,2014-08-21 13:51:00,
2014-08-21 09:56:00,87.0,76.5,30.23,NNE,22,3.5,3.5,71,0.00,CLR,,0.00,WeatherDisplay:10.37,2014-08-21 13:56:00,
2014-08-21 10:01:00,87.5,76.5,30.23,ENE,67,3.5,3.5,70,0.00,CLR,,0.00,WeatherDisplay:10.37,2014-08-21 14:01:00,
2014-08-21 10:06:00,87.9,77.3,30.23,NE,45,2.3,2.3,71,0.00,CLR,,0.00,WeatherDisplay:10.37,2014-08-21 14:06:00,
2014-08-21 10:11:00,87.9,76.9,30.23,NE,45,2.3,2.3,70,0.00,CLR,,0.00,WeatherDisplay:10.37,2014-08-21 14:11:00,
2014-08-21 10:16:00,88.6,77.6,30.23,NNE,22,1.0,1.1,70,0.00,CLR,,0.00,WeatherDisplay:10.37,2014-08-21 14:16:00,
2014-08-21 10:21:00,88.8,76.4,30.23,North,360,3.5,3.5,67,0.00,CLR,,0.00,WeatherDisplay:10.37,2014-08-21 14:21:00,
2014-08-21 10:26:00,88.7,76.3,30.23,East,90,2.3,2.3,67,0.00,CLR,,0.00,WeatherDisplay:10.37,2014-08-21 14:26:00,
2014-08-21 10:31:00,89.3,76.9,30.23,ENE,67,2.3,2.3,67,0.00,CLR,,0.00,WeatherDisplay:10.37,2014-08-21 14:31:00,
2014-08-21 10:36:00,89.3,76.9,30.23,NE,45,2.3,2.3,67,0.00,CLR,,0.00,WeatherDisplay:10.37,2014-08-21 14:36:00,
2014-08-21 10:41:00,89.2,76.4,30.23,NNE,22,3.5,3.5,66,0.00,CLR,,0.00,WeatherDisplay:10.37,2014-08-21 14:41:00,
2014-08-21 10:46:00,89.9,76.6,30.24,North,360,3.5,3.5,65,0.00,CLR,,0.00,WeatherDisplay:10.37,2014-08-21 14:46:00,
2014-08-21 10:51:00,89.8,76.9,30.23,North,360,2.3,2.5,66,0.00,CLR,,0.00,WeatherDisplay:10.37,2014-08-21 14:51:00,
2014-08-21 10:56:00,89.7,76.8,30.23,ENE,67,2.3,2.3,66,0.00,CLR,,0.00,WeatherDisplay:10.37,2014-08-21 14:56:00,
2014-08-21 11:01:00,90.1,76.3,30.23,NE,45,2.3,2.3,64,0.00,CLR,,0.00,WeatherDisplay:10.37,2014-08-21 15:01:00,
2014-08-21 11:06:00,90.5,76.7,30.23,North,360,2.3,2.3,64,0.00,CLR,,0.00,WeatherDisplay:10.37,2014-08-21 15:06:00,
2014-08-21 11:11:00,90.7,77.3,30.23,NNE,22,1.2,1.2,65,0.00,CLR,,0.00,WeatherDisplay:10.37,2014-08-21 15:11:00,
2014-08-21 11:16:00,90.8,77.4,30.23,NNW,337,2.3,2.3,65,0.00,CLR,,0.00,WeatherDisplay:10.37,2014-08-21 15:16:00,
2014-08-21 11:21:00,90.3,76.9,30.23,East,90,3.5,3.5,65,0.00,CLR,,0.00,WeatherDisplay:10.37,2014-08-21 15:21:00,
2014-08-21 11:26:00,90.3,76.9,30.23,NE,45,2.3,2.3,65,0.00,CLR,,0.00,WeatherDisplay:10.37,2014-08-21 15:26:00,
2014-08-21 11:31:00,90.6,74.8,30.23,NNE,22,2.0,2.0,60,0.00,CLR,,0.00,WeatherDisplay:10.37,2014-08-21 15:31:00,
2014-08-21 11:36:00,90.9,74.6,30.23,NE,45,3.5,3.5,59,0.00,CLR,,0.00,WeatherDisplay:10.37,2014-08-21 15:36:00,
2014-08-21 11:41:00,90.9,75.1,30.23,East,90,2.3,2.3,60,0.00,CLR,,0.00,WeatherDisplay:10.37,2014-08-21 15:41:00,
2014-08-21 11:46:00,91.6,75.7,30.23,North,360,2.3,0.0,60,0.00,CLR,,0.00,WeatherDisplay:10.37,2014-08-21 15:46:00,
2014-08-21 11:51:00,92.2,75.3,30.23,NNE,22,3.5,3.5,58,0.00,CLR,,0.00,WeatherDisplay:10.37,2014-08-21 15:51:00,
2014-08-21 11:56:00,92.3,74.9,30.23,NNE,22,3.5,3.5,57,0.00,CLR,,0.00,WeatherDisplay:10.37,2014-08-21 15:56:00,
2014-08-21 12:01:00,92.3,74.9,30.23,NE,45,1.2,1.2,57,0.00,CLR,,0.00,WeatherDisplay:10.37,2014-08-21 16:01:00,
2014-08-21 12:06:00,92.9,75.4,30.23,North,360,2.3,2.3,57,0.00,CLR,,0.00,WeatherDisplay:10.37,2014-08-21 16:06:00,
2014-08-21 12:11:00,92.7,75.8,30.23,North,360,2.3,2.3,58,0.00,CLR,,0.00,WeatherDisplay:10.37,2014-08-21 16:11:00,
2014-08-21 12:16:00,92.9,75.4,30.23,NE,45,3.5,3.5,57,0.00,CLR,,0.00,WeatherDisplay:10.37,2014-08-21 16:16:00,
2014-08-21 12:21:00,92.2,75.8,30.23,NE,45,2.3,2.3,59,0.00,CLR,,0.00,WeatherDisplay:10.37,2014-08-21 16:21:00,
2014-08-21 12:26:00,91.9,76.0,30.22,NNE,22,3.5,3.5,60,0.00,CLR,,0.00,WeatherDisplay:10.37,2014-08-21 16:26:00,
2014-08-21 12:31:00,92.7,75.8,30.22,NNE,22,1.2,0.0,58,0.00,CLR,,0.00,WeatherDisplay:10.37,2014-08-21 16:31:00,
2014-08-21 12:36:00,93.2,73.5,30.22,NNW,337,4.6,4.6,53,0.00,CLR,,0.00,WeatherDisplay:10.37,2014-08-21 16:36:00,
2014-08-21 12:41:00,93.1,74.0,30.22,NNE,22,1.2,0.0,54,0.00,CLR,,0.00,WeatherDisplay:10.37,2014-08-21 16:41:00,
2014-08-21 12:46:00,92.8,74.3,30.21,NE,45,2.3,2.3,55,0.00,CLR,,0.00,WeatherDisplay:10.37,2014-08-21 16:46:00,
2014-08-21 12:51:00,92.6,73.0,30.21,ENE,67,2.3,2.3,53,0.00,CLR,,0.00,WeatherDisplay:10.37,2014-08-21 16:51:00,
2014-08-21 12:56:00,92.7,73.6,30.21,SE,135,2.3,2.3,54,0.00,CLR,,0.00,WeatherDisplay:10.37,2014-08-21 16:56:00,
2014-08-21 13:01:00,93.6,73.9,30.21,NE,45,2.3,2.3,53,0.00,CLR,,0.00,WeatherDisplay:10.37,2014-08-21 17:01:00,
2014-08-21 13:06:00,93.4,72.6,30.21,North,360,2.3,2.3,51,0.00,CLR,,0.00,WeatherDisplay:10.37,2014-08-21 17:06:00,
2014-08-21 13:11:00,93.1,73.4,30.21,NE,45,3.5,3.5,53,0.00,CLR,,0.00,WeatherDisplay:10.37,2014-08-21 17:11:00,
2014-08-21 13:16:00,92.3,72.1,30.20,SE,135,3.5,3.5,52,0.00,CLR,,0.00,WeatherDisplay:10.37,2014-08-21 17:16:00,
2014-08-21 13:21:00,92.0,72.4,30.20,SE,135,4.0,4.0,53,0.00,CLR,,0.00,WeatherDisplay:10.37,2014-08-21 17:21:00,
2014-08-21 13:26:00,92.7,74.2,30.20,NE,45,3.5,3.5,55,0.00,CLR,,0.00,WeatherDisplay:10.37,2014-08-21 17:26:00,
2014-08-21 13:31:00,93.5,73.8,30.19,NE,45,2.3,2.3,53,0.00,CLR,,0.00,WeatherDisplay:10.37,2014-08-21 17:31:00,
2014-08-21 13:36:00,91.9,71.2,30.19,ESE,112,2.3,2.3,51,0.00,CLR,,0.00,WeatherDisplay:10.37,2014-08-21 17:36:00,
2014-08-21 13:41:00,91.9,73.4,30.19,East,90,2.3,2.3,55,0.00,CLR,,0.00,WeatherDisplay:10.37,2014-08-21 17:41:00,
2014-08-21 13:46:00,92.1,74.1,30.19,ENE,67,2.3,2.3,56,0.00,CLR,,0.00,WeatherDisplay:10.37,2014-08-21 17:46:00,
2014-08-21 13:51:00,91.9,74.0,30.19,ESE,112,2.3,2.3,56,0.00,CLR,,0.00,WeatherDisplay:10.37,2014-08-21 17:51:00,
2014-08-21 13:56:00,92.4,72.8,30.19,SE,135,3.5,3.5,53,0.00,CLR,,0.00,WeatherDisplay:10.37,2014-08-21 17:56:00,
2014-08-21 14:01:00,92.5,72.3,30.19,East,90,5.8,5.8,52,0.00,CLR,,0.00,WeatherDisplay:10.37,2014-08-21 18:01:00,
2014-08-21 14:06:00,93.2,71.2,30.19,SE,135,3.5,3.5,49,0.00,CLR,,0.00,WeatherDisplay:10.37,2014-08-21 18:06:00,
2014-08-21 14:11:00,93.8,72.3,30.19,NE,45,2.3,2.3,50,0.00,CLR,,0.00,WeatherDisplay:10.37,2014-08-21 18:11:00,
2014-08-21 14:16:00,94.6,72.5,30.19,SE,135,5.0,5.0,49,0.00,CLR,,0.00,WeatherDisplay:10.37,2014-08-21 18:16:00,
2014-08-21 14:21:00,92.9,71.5,30.19,SE,135,3.5,3.5,50,0.00,CLR,,0.00,WeatherDisplay:10.37,2014-08-21 18:21:00,
2014-08-21 14:26:00,92.6,73.0,30.19,NNE,22,3.5,3.5,53,0.00,CLR,,0.00,WeatherDisplay:10.37,2014-08-21 18:26:00,
2014-08-21 14:31:00,92.3,73.8,30.18,SE,135,2.3,2.3,55,0.00,CLR,,0.00,WeatherDisplay:10.37,2014-08-21 18:31:00,
2014-08-21 14:36:00,90.9,72.0,30.18,ESE,112,6.0,6.0,54,0.00,CLR,,0.00,WeatherDisplay:10.37,2014-08-21 18:36:00,
2014-08-21 14:41:00,91.1,72.1,30.17,East,90,2.3,2.3,54,0.00,CLR,,0.00,WeatherDisplay:10.37,2014-08-21 18:41:00,
2014-08-21 14:46:00,91.8,72.2,30.17,SE,135,3.5,3.5,53,0.00,CLR,,0.00,WeatherDisplay:10.37,2014-08-21 18:46:00,
2014-08-21 14:51:00,92.9,71.5,30.17,NE,45,2.3,2.3,50,0.00,CLR,,0.00,WeatherDisplay:10.37,2014-08-21 18:51:00,
2014-08-21 14:56:00,93.5,74.4,30.17,ESE,112,2.3,2.3,54,0.00,CLR,,0.00,WeatherDisplay:10.37,2014-08-21 18:56:00,
2014-08-21 15:01:00,92.6,71.8,30.17,ESE,112,6.0,6.0,51,0.00,CLR,,0.00,WeatherDisplay:10.37,2014-08-21 19:01:00,
2014-08-21 15:06:00,91.9,72.3,30.17,ESE,112,1.2,1.2,53,0.00,CLR,,0.00,WeatherDisplay:10.37,2014-08-21 19:06:00,
2014-08-21 15:11:00,91.7,71.0,30.17,SE,135,3.5,3.5,51,0.00,CLR,,0.00,WeatherDisplay:10.37,2014-08-21 19:11:00,
2014-08-21 15:16:00,91.7,72.1,30.16,SSE,157,2.3,2.3,53,0.00,CLR,,0.00,WeatherDisplay:10.37,2014-08-21 19:16:00,
2014-08-21 15:21:00,92.6,71.8,30.16,NE,45,3.5,3.5,51,0.00,CLR,,0.00,WeatherDisplay:10.37,2014-08-21 19:21:00,
2014-08-21 15:26:00,93.3,71.3,30.16,East,90,2.3,2.3,49,0.00,CLR,,0.00,WeatherDisplay:10.37,2014-08-21 19:26:00,
2014-08-21 15:31:00,92.3,69.8,30.16,ESE,112,3.5,3.5,48,0.00,CLR,,0.00,WeatherDisplay:10.37,2014-08-21 19:31:00,
2014-08-21 15:36:00,92.5,70.6,30.16,NNE,22,4.0,4.0,49,0.00,CLR,,0.00,WeatherDisplay:10.37,2014-08-21 19:36:00,
2014-08-21 15:41:00,93.4,70.2,30.15,SE,135,1.2,1.2,47,0.00,CLR,,0.00,WeatherDisplay:10.37,2014-08-21 19:41:00,
2014-08-21 15:46:00,93.7,69.8,30.15,SE,135,4.0,4.0,46,0.00,CLR,,0.00,WeatherDisplay:10.37,2014-08-21 19:46:00,
2014-08-21 15:51:00,93.5,70.9,30.15,ESE,112,5.8,5.8,48,0.00,CLR,,0.00,WeatherDisplay:10.37,2014-08-21 19:51:00,
2014-08-21 15:56:00,93.4,72.0,30.15,SE,135,3.5,3.5,50,0.00,CLR,,0.00,WeatherDisplay:10.37,2014-08-21 19:56:00,
2014-08-21 16:01:00,92.2,70.3,30.16,East,90,2.3,2.3,49,0.00,CLR,,0.00,WeatherDisplay:10.37,2014-08-21 20:01:00,
2014-08-21 16:06:00,91.8,70.5,30.16,NE,45,1.2,1.2,50,0.00,CLR,,0.00,WeatherDisplay:10.37,2014-08-21 20:06:00,
2014-08-21 16:11:00,91.7,70.4,30.15,NE,45,1.2,1.3,50,0.00,CLR,,0.00,WeatherDisplay:10.37,2014-08-21 20:11:00,
2014-08-21 16:16:00,91.7,70.4,30.15,NE,45,1.2,1.3,50,0.00,CLR,,0.00,WeatherDisplay:10.37,2014-08-21 20:16:00,
2014-08-21 16:21:00,91.7,70.4,30.15,NE,45,1.2,1.3,50,0.00,CLR,,0.00,WeatherDisplay:10.37,2014-08-21 20:21:00,
2014-08-21 16:26:00,91.7,70.4,30.15,NE,45,1.2,1.3,50,0.00,CLR,,0.00,WeatherDisplay:10.37,2014-08-21 20:26:00,
2014-08-21 16:31:00,91.7,70.4,30.15,NE,45,1.2,1.3,50,0.00,CLR,,0.00,WeatherDisplay:10.37,2014-08-21 20:31:00,
2014-08-21 16:36:00,91.7,70.4,30.15,NE,45,1.2,1.3,50,0.00,CLR,,0.00,WeatherDisplay:10.37,2014-08-21 20:36:00,
2014-08-21 16:41:00,91.7,70.4,30.15,NE,45,1.2,1.3,50,0.00,CLR,,0.00,WeatherDisplay:10.37,2014-08-21 20:41:00,
2014-08-21 16:46:00,91.7,70.4,30.15,NE,45,1.2,1.3,50,0.00,CLR,,0.00,WeatherDisplay:10.37,2014-08-21 20:46:00,
2014-08-21 16:51:00,91.7,70.4,30.15,NE,45,1.2,1.3,50,0.00,CLR,,0.00,WeatherDisplay:10.37,2014-08-21 20:51:00,
2014-08-21 16:56:00,91.7,70.4,30.15,NE,45,1.2,1.3,50,0.00,CLR,,0.00,WeatherDisplay:10.37,2014-08-21 20:56:00,
2014-08-21 17:01:00,91.7,70.4,30.15,NE,45,1.2,1.3,50,0.00,CLR,,0.00,WeatherDisplay:10.37,2014-08-21 21:01:00,
2014-08-21 17:06:00,91.7,70.4,30.15,NE,45,1.2,1.3,50,0.00,CLR,,0.00,WeatherDisplay:10.37,2014-08-21 21:06:00,
2014-08-21 17:12:00,91.7,70.4,30.15,NE,45,1.2,1.3,50,0.00,CLR,,0.00,WeatherDisplay:10.37,2014-08-21 21:12:00,
2014-08-21 17:17:00,91.7,70.4,30.15,NE,45,1.2,1.3,50,0.00,CLR,,0.00,WeatherDisplay:10.37,2014-08-21 21:17:00,
2014-08-21 17:22:00,91.7,70.4,30.15,NE,45,1.2,1.3,50,0.00,CLR,,0.00,WeatherDisplay:10.37,2014-08-21 21:22:00,
2014-08-21 17:27:00,91.7,70.4,30.15,NE,45,1.2,1.3,50,0.00,CLR,,0.00,WeatherDisplay:10.37,2014-08-21 21:27:00,
2014-08-21 17:32:00,91.7,70.4,30.15,NE,45,1.2,1.3,50,0.00,CLR,,0.00,WeatherDisplay:10.37,2014-08-21 21:32:00,
2014-08-21 17:37:00,91.7,70.4,30.15,NE,45,1.2,1.3,50,0.00,CLR,,0.00,WeatherDisplay:10.37,2014-08-21 21:37:00,
2014-08-21 17:42:00,91.7,70.4,30.15,NE,45,1.2,1.3,50,0.00,CLR,,0.00,WeatherDisplay:10.37,2014-08-21 21:42:00,
2014-08-21 17:47:00,91.7,70.4,30.15,NE,45,1.2,1.3,50,0.00,CLR,,0.00,WeatherDisplay:10.37,2014-08-21 21:47:00,
2014-08-21 17:52:00,91.7,70.4,30.15,NE,45,1.2,1.3,50,0.00,CLR,,0.00,WeatherDisplay:10.37,2014-08-21 21:52:00,
2014-08-21 17:57:00,91.7,70.4,30.15,NE,45,1.2,1.3,50,0.00,CLR,,0.00,WeatherDisplay:10.37,2014-08-21 21:57:00,
2014-08-21 18:02:00,91.7,70.4,30.15,NE,45,1.2,1.3,50,0.00,CLR,,0.00,WeatherDisplay:10.37,2014-08-21 22:02:00,
2014-08-21 18:07:00,91.7,70.4,30.15,NE,45,1.2,1.3,50,0.00,CLR,,0.00,WeatherDisplay:10.37,2014-08-21 22:07:00,
2014-08-21 18:12:00,91.7,70.4,30.15,NE,45,1.2,1.3,50,0.00,CLR,,0.00,WeatherDisplay:10.37,2014-08-21 22:12:00,
2014-08-21 18:17:00,91.7,70.4,30.15,NE,45,1.2,1.3,50,0.00,CLR,,0.00,WeatherDisplay:10.37,2014-08-21 22:17:00,
2014-08-21 18:22:00,91.7,70.4,30.15,NE,45,1.2,1.3,50,0.00,CLR,,0.00,WeatherDisplay:10.37,2014-08-21 22:22:00,
2014-08-21 18:27:00,91.7,70.4,30.15,NE,45,1.2,1.3,50,0.00,CLR,,0.00,WeatherDisplay:10.37,2014-08-21 22:27:00,
2014-08-21 18:32:00,91.7,70.4,30.15,NE,45,1.2,1.3,50,0.00,CLR,,0.00,WeatherDisplay:10.37,2014-08-21 22:32:00,